Location: Newark
(21.8258°S, 114.1586°E)
Time: 11:44:18
(UTC+00:00)

Hubble Space Telescope - Visible Passes

Search period start: 12 December 2019 00:00
Search period end: 22 December 2019 00:00
Orbit: 536 x 540 km, 28.5° (Epoch: 11 December)

Date Brightness Start Highest point End Pass type
(mag) Time Alt. Az. Time Alt. Az. Time Alt. Az.
12 Dec 2.3 12:52:22 10° WSW 12:56:07 32° S 12:57:25 26° SSE visible
13 Dec 2.3 12:41:53 10° WSW 12:45:38 31° S 12:47:25 22° SE visible
14 Dec 2.3 12:31:22 10° WSW 12:35:07 32° S 12:37:22 19° SE visible
14 Dec 4.0 14:12:33 10° WSW 14:12:41 11° WSW 14:12:41 11° WSW visible
15 Dec 2.1 12:20:50 10° WSW 12:24:38 34° S 12:27:14 17° ESE visible
15 Dec 3.7 14:01:57 10° WSW 14:02:34 14° WSW 14:02:34 14° WSW visible
16 Dec 2.0 12:10:16 10° WSW 12:14:08 36° S 12:17:05 15° ESE visible
16 Dec 3.4 13:51:22 10° WSW 13:52:25 17° WSW 13:52:25 17° WSW visible
17 Dec 1.8 11:59:40 10° WSW 12:03:37 40° S 12:06:56 14° ESE visible
17 Dec 3.1 13:40:48 10° WSW 13:42:15 21° WSW 13:42:15 21° WSW visible
18 Dec 1.5 11:49:05 10° WSW 11:53:06 46° SSE 11:56:46 12° E visible
18 Dec 2.8 13:30:16 10° WSW 13:32:06 24° W 13:32:06 24° W visible
19 Dec 1.3 11:38:28 10° WSW 11:42:34 55° SSE 11:46:38 10° E visible
19 Dec 2.5 13:19:47 10° W 13:21:57 26° WNW 13:21:57 26° WNW visible
20 Dec 1.0 11:27:51 10° WSW 11:32:00 67° SSE 11:36:07 10° E visible
20 Dec 2.4 13:09:23 10° W 13:11:50 26° WNW 13:11:50 26° WNW visible
21 Dec 2.5 12:59:04 10° W 13:01:44 23° NW 13:01:44 23° NW visible
